Regional Weather Roundup
Issued by NWS

Home | Current Version | Previous Version | Graphics & Text | Print | Product List | Glossary Off
Versions: 1 2 3 4 5 6 7 8 9 10 11 12 13 14 15 16 17 18 19 20 21 22 23 24 25 26 27

000
ASUS45 KBOU 271607
RWRCO

WEATHER ROUNDUP FOR COLORADO
NATIONAL WEATHER SERVICE DENVER/BOULDER CO
1000 AM MDT SAT MAY 27 2017

NOTE: "FAIR" INDICATES FEW OR NO CLOUDS BELOW 12000 FEET WITH NO
SIGNIFICANT WEATHER AND/OR OBSTRUCTIONS TO VISIBILITY.

COZ001>005-013-030-031-271700-
...NORTHWEST COLORADO...

CITY           SKY/WX    TMP DP  RH WIND       PRES   REMARKS
CRAIG          CLOUDY    48  36  63 N3        30.18S
HAYDEN         CLOUDY    43  34  70 E6        30.19R
MEEKER         CLOUDY    48  41  76 SW6       30.18R
RABBIT EARS PA NOT AVBL
STEAMBOAT SPGS NOT AVBL
WALDEN         NOT AVBL
$$

COZ006>008-011-271700-
...WEST CENTRAL VALLEYS...

CITY           SKY/WX    TMP DP  RH WIND       PRES   REMARKS
GRAND JUNCTION FAIR      64  33  31 NW10G16   30.10R
MONTROSE       CLOUDY    58  32  37 N6        30.14S
EAGLE          PTSUNNY   52  36  54 CALM      30.16S
RIFLE          PTSUNNY   57  34  41 CALM      30.13R
DELTA          PTSUNNY   62  38  41 NE5       30.11R
NUCLA          FAIR      59  30  33 N5        30.16S
$$

COZ017>023-064>068-271700-
...SOUTHWEST COLORADO...

CITY           SKY/WX    TMP DP  RH WIND       PRES   REMARKS
DURANGO        FAIR      60  24  25 CALM      30.12R
CORTEZ         FAIR      65  32  29 VRB3      30.12R
PAGOSA SPRINGS FAIR      56  17  21 SW5       30.17S
TELLURIDE      FAIR      53  29  40 W10       30.24R
WOLF CREEK PAS NOT AVBL
$$

COZ009-010-012-014-032>034-037-058>063-271700-
...CENTRAL COLORADO...

CITY           SKY/WX    TMP DP  RH WIND       PRES   REMARKS
ASPEN          LGT RAIN  46  38  73 CALM      30.16F
BUENA VISTA    CLOUDY    57  28  32 NW8       30.11S
COPPER MTN     NOT AVBL
BERTHOUD PASS  NOT AVBL
COTTONWOOD PAS NOT AVBL
GUNNISON       FAIR      55  33  43 VRB5      30.15S
KREMMLING      NOT AVBL
LEADVILLE      CLOUDY    41  28  60 VRB6      30.19F
SALIDA         FAIR      64  26  24 SW16G22   30.17S
SUNLIGHT       NOT AVBL
WILKERSON PASS NOT AVBL
$$

COZ069>075-271700-
...SAN LUIS VALLEY/SANGRE DE CRISTO MOUNTAINS...

CITY           SKY/WX    TMP DP  RH WIND       PRES   REMARKS
ALAMOSA        FAIR      63  19  18 VRB7      30.09S
DEL NORTE      NOT AVBL
LA VETA PASS   NOT AVBL
SAGUACHE       NOT AVBL
$$

COZ035-036-038>040-271700-
...NORTHERN COLORADO FRONT RANGE...

CITY           SKY/WX    TMP DP  RH WIND       PRES   REMARKS
DENVER INTL AP PTSUNNY   54  42  64 N12       30.10R
DMNS CITY PARK   N/A     55  40  57 E8G17     30.08S
AURORA         PTSUNNY   54  40  59 N8        30.10S
FRONT RANGE AP PTSUNNY   55  45  67 N12G20    30.10S
ERIE MUNI ARPT NOT AVBL
BOULDER MUN AP NOT AVBL
CENTENNIAL     PTSUNNY   54  40  59 CALM      30.10S
BROOMFIELD     PTSUNNY   54  46  76 VRB3      30.10S
FORT COLLINS   CLOUDY    53  46  77 E6        30.11S
LONGMONT       NOT AVBL
$$

COZ041-046-047-076>085-087-088-271700-
...PIKES PEAK/PALMER DIVIDE AND SOUTHERN FOOTHILLS...

CITY           SKY/WX    TMP DP  RH WIND       PRES   REMARKS
COLO. SPRINGS  CLOUDY    59  38  45 NE9       30.10S
A. F. ACADEMY  CLOUDY    55  36  49 N8        30.10S
SCHRIEVER AFB  PTSUNNY   55  36  48 NE15G24   30.10S
CHEYENNE MTN   PTSUNNY   53  36  53 E5        30.07R
ELLICOTT       CLOUDY   N/A N/A N/A NE13      30.08R
FALCON         CLOUDY    54  34  47 NE8G17    30.14R
FORT CARSON    PTSUNNY   61  38  43 E10       30.08S
LIMON          PTSUNNY   57  43  59 N16G25    30.08S
MONUMENT HILL  NOT AVBL
CANON CITY     NOT AVBL
WALSENBURG     FAIR      59  46  63 N8        30.08F
TRINIDAD       CLOUDY    53  44  71 VRB3      30.08S
$$

COZ042>045-048>051-090-091-271700-
...NORTHEAST COLORADO...

CITY           SKY/WX    TMP DP  RH WIND       PRES   REMARKS
GREELEY ARPT   FAIR      54  46  74 N6        30.10R
AKRON          PTSUNNY   56  44  64 N17       30.06R
BURLINGTON     PTSUNNY   58  50  75 N18G26    30.03S
WRAY           CLOUDY    59  50  72 N15G22    30.04R
YUMA           NOT AVBL
STERLING       NOT AVBL
HOLYOKE        NOT AVBL
FORT MORGAN    CLOUDY    54  44  68 N17G23    30.08S
$$

COZ086-089-092>099-271700-
...SOUTHEAST COLORADO...

CITY           SKY/WX    TMP DP  RH WIND       PRES   REMARKS
PUEBLO         FAIR      63  44  50 VRB6      30.05S
LA JUNTA       CLOUDY    64  49  57 NE10      30.03S
LAMAR          CLOUDY    64  50  60 N12       29.99R
SPRINGFIELD      N/A     61  52  72 N13G21    30.00R
$$




USA.gov is the U.S. government's official web portal to all federal, state and local government web resources and services.